Lapse_Rate
6.6 6.4 6.1 6.0 6.0 5.8 5.6 5.8 6.0 6.1 6.1 5.9 6.0 6.1 6.2 6.3 6.3 6.4 6.5 6.5 6.6 6.6 6.7 6.7 6.7 6.8 6.9 6.9 6.9 6.9 6.8 6.6 6.4 6.2 6.1 6.0 5.7 5.5 5.4 5.4 5.4 5.3 5.4
6.4 6.4 6.3 5.9 6.0 5.7 5.7 6.0 6.0 6.0 6.0 6.0 6.1 6.2 6.3 6.4 6.5 6.5 6.6 6.7 6.8 6.8 6.9 6.9 6.9 7.0 7.0 7.0 7.0 7.0 6.9 6.7 6.5 6.3 6.2 5.9 5.6 5.5 5.4 5.3 5.3 5.4 5.5
6.6 6.2 6.4 6.1 6.1 6.1 6.1 6.2 6.1 6.0 6.0 6.1 6.2 6.3 6.3 6.4 6.4 6.5 6.6 6.7 6.8 6.9 7.0 7.1 7.2 7.2 7.2 7.1 7.0 6.9 6.8 6.6 6.3 6.1 6.1 5.7 5.5 5.4 5.3 5.3 5.6 5.7 5.7
6.6 6.3 6.2 6.1 6.1 6.2 6.2 6.3 6.2 6.1 6.1 6.1 6.2 6.3 6.2 6.3 6.4 6.6 6.7 6.8 6.9 7.0 7.1 7.1 7.2 7.2 7.2 7.1 7.0 6.8 6.7 6.4 6.1 6.1 6.0 5.7 5.5 5.4 5.4 5.5 5.7 5.7 5.7
6.7 6.4 6.3 6.1 6.1 6.2 6.2 6.3 6.3 6.1 6.1 6.1 6.2 6.2 6.3 6.4 6.5 6.7 6.8 6.9 7.0 7.0 7.1 7.2 7.2 7.2 7.2 7.1 7.0 6.8 6.7 6.3 6.1 6.0 5.9 5.9 5.8 5.7 5.7 5.7 5.9 5.9 5.9
6.7 6.4 6.4 6.0 6.1 6.2 6.2 6.2 6.2 6.2 6.2 6.2 6.2 6.3 6.4 6.5 6.6 6.7 6.9 6.9 7.0 7.0 7.1 7.1 7.2 7.2 7.2 7.0 6.9 6.8 6.5 6.4 6.1 6.1 6.0 5.9 5.9 5.9 6.0 5.9 5.8 5.9 6.0
6.6 6.6 6.4 6.3 6.2 6.2 6.2 6.2 6.2 6.3 6.2 6.3 6.3 6.4 6.5 6.6 6.7 6.8 6.9 6.9 7.0 7.0 7.1 7.2 7.2 7.2 7.2 7.1 6.9 6.7 6.5 6.4 6.3 6.2 6.1 6.1 6.0 6.0 6.0 5.9 6.0 5.9 5.8
6.5 6.6 6.5 6.3 6.2 6.2 6.1 6.3 6.3 6.4 6.3 6.3 6.4 6.4 6.5 6.7 6.8 6.9 6.9 7.0 7.0 7.0 7.1 7.2 7.1 7.1 7.2 7.1 6.9 6.7 6.5 6.4 6.3 6.2 6.2 6.2 6.1 6.1 6.0 5.9 5.8 5.8 5.9
6.5 6.5 6.5 6.3 6.2 6.3 6.2 6.3 6.3 6.4 6.4 6.4 6.5 6.4 6.5 6.6 6.8 6.8 6.9 7.0 7.0 7.0 7.1 7.2 7.1 7.1 7.2 7.1 6.9 6.5 6.4 6.4 6.3 6.3 6.3 6.2 6.3 6.1 5.9 5.9 5.8 5.8 5.8
6.6 6.5 6.3 6.3 6.2 6.2 6.3 6.3 6.3 6.4 6.4 6.5 6.5 6.5 6.5 6.6 6.7 6.8 6.8 6.9 6.9 7.0 7.1 7.2 7.2 7.2 7.2 7.1 7.1 6.7 6.5 6.4 6.3 6.3 6.3 6.2 6.2 6.2 6.0 5.9 5.9 5.9 5.9
6.7 6.4 6.2 6.2 6.2 6.2 6.3 6.2 6.3 6.4 6.6 6.4 6.5 6.4 6.4 6.4 6.5 6.7 6.8 6.9 7.0 7.0 7.0 7.1 7.1 7.0 7.0 7.1 7.1 6.8 6.7 6.5 6.3 6.4 6.4 6.2 6.2 6.2 6.0 5.9 6.0 5.9 5.8
7.1 6.6 6.3 6.3 6.3 6.2 6.3 6.2 6.3 6.4 6.5 6.4 6.4 6.4 6.3 6.4 6.4 6.5 6.7 6.8 6.9 6.9 7.0 7.1 7.0 7.0 7.0 7.0 7.1 6.8 6.8 6.5 6.3 6.5 6.5 6.4 6.4 6.2 6.1 6.0 5.9 5.9 5.7
7.0 6.8 6.4 6.3 6.4 6.2 6.3 6.3 6.4 6.3 6.4 6.4 6.4 6.3 6.3 6.4 6.4 6.5 6.4 6.6 6.7 6.8 6.9 6.8 6.9 6.9 6.9 6.9 6.9 6.8 6.7 6.5 6.4 6.5 6.5 6.5 6.4 6.2 6.1 6.0 6.0 5.9 5.9
7.2 6.8 6.4 6.5 6.3 6.3 6.3 6.4 6.3 6.3 6.3 6.3 6.3 6.3 6.3 6.3 6.4 6.4 6.4 6.3 6.4 6.6 6.7 6.6 6.6 6.6 6.8 6.8 6.8 6.9 6.6 6.5 6.4 6.5 6.5 6.5 6.4 6.2 6.1 6.1 6.0 6.0 5.9
7.0 6.7 6.5 6.6 6.4 6.3 6.4 6.5 6.3 6.3 6.3 6.3 6.2 6.3 6.3 6.3 6.2 6.2 6.2 6.3 6.3 6.4 6.5 6.5 6.5 6.5 6.6 6.6 6.7 6.8 6.6 6.5 6.4 6.4 6.4 6.4 6.3 6.3 6.2 6.2 6.1 6.0 6.0
7.0 6.8 6.2 6.3 6.4 6.4 6.3 6.4 6.2 6.3 6.3 6.3 6.3 6.4 6.4 6.3 6.3 6.3 6.2 6.2 6.2 6.2 6.3 6.4 6.4 6.5 6.4 6.5 6.6 6.6 6.6 6.5 6.5 6.4 6.3 6.3 6.3 6.2 6.2 6.2 6.1 6.1 6.0
7.0 6.9 6.3 6.2 6.4 6.4 6.4 6.3 6.2 6.3 6.4 6.3 6.4 6.4 6.4 6.4 6.3 6.4 6.3 6.3 6.3 6.2 6.1 6.2 6.2 6.2 6.3 6.3 6.3 6.5 6.5 6.6 6.5 6.5 6.3 6.1 6.1 6.0 6.0 5.9 5.9 6.0 6.0
7.1 7.2 7.0 6.4 6.3 6.2 6.3 6.2 6.2 6.2 6.3 6.3 6.3 6.4 6.3 6.3 6.4 6.4 6.3 6.3 6.3 6.3 6.3 6.2 6.3 6.1 6.1 6.2 6.2 6.3 6.4 6.5 6.5 6.5 6.4 6.2 6.1 6.0 5.9 5.8 5.9 5.9 5.8
6.9 7.1 7.0 6.6 6.5 6.2 6.2 6.4 6.2 6.2 6.2 6.2 6.2 6.2 6.2 6.2 6.2 6.1 6.1 6.1 6.0 6.2 6.3 6.2 6.0 6.0 6.0 6.0 6.1 6.2 6.3 6.4 6.3 6.3 6.3 6.1 6.1 6.1 6.0 5.8 5.8 5.7 5.6
6.1 6.4 6.1 6.6 6.3 6.4 6.4 6.6 6.3 6.2 6.2 6.1 6.1 6.2 6.1 6.2 6.2 6.1 5.9 5.9 5.9 6.0 6.1 6.2 6.2 6.0 5.9 5.9 6.0 6.1 6.2 6.2 6.0 5.8 6.0 5.7 5.7 5.6 5.7 5.6 5.6 5.5 5.5
5.6 6.2 6.4 6.2 6.3 6.4 6.4 6.5 6.3 6.3 6.2 6.1 6.2 6.1 6.1 5.9 5.8 5.9 5.8 5.8 5.8 5.9 5.8 5.8 5.8 5.9 5.9 5.7 5.9 6.0 5.9 5.9 5.7 5.5 5.5 5.5 5.6 5.6 5.5 5.5 5.5 5.5 5.4
6.1 5.6 5.8 5.9 6.0 6.0 5.9 6.2 6.1 6.1 6.1 6.1 6.1 5.9 5.9 5.8 5.6 5.7 5.6 6.0 5.9 6.1 6.0 5.8 5.7 5.8 5.8 5.7 5.7 5.6 5.9 5.7 5.8 5.6 5.6 5.6 5.4 5.4 5.5 5.4 5.4 5.5 5.6
5.3 5.9 5.7 6.2 6.0 6.0 6.1 6.2 6.2 6.2 6.0 6.0 5.8 5.6 5.7 5.7 5.7 5.7 5.7 5.8 5.9 6.0 6.2 6.0 5.7 5.6 5.6 5.5 5.7 5.7 5.8 5.8 5.8 5.7 5.5 5.7 5.5 5.6 5.7 5.7 5.5 5.6 5.5
4.7 6.0 6.0 6.3 5.8 5.9 6.0 6.1 6.2 6.0 5.9 5.8 6.0 6.2 6.1 6.0 5.9 5.9 5.6 5.8 6.1 5.9 6.1 6.1 5.9 5.7 5.7 5.9 5.8 5.6 5.5 5.5 5.8 5.8 5.5 5.6 5.7 5.6 5.7 5.6 5.5 5.5 5.5
4.5 5.1 6.2 6.0 6.1 6.0 5.8 5.8 5.4 5.7 6.0 6.1 5.9 5.9 6.1 6.3 5.4 5.6 5.3 5.6 5.8 5.5 5.8 5.5 5.8 5.7 5.7 5.9 5.6 5.5 5.4 5.4 5.4 5.5 6.1 6.0 5.9 5.6 5.5 5.5 5.5 5.4 5.2
5.3 4.8 5.3 5.6 6.1 5.3 5.7 5.7 5.8 6.0 5.8 5.8 5.7 5.6 5.5 5.5 5.6 5.5 5.6 5.3 5.4 5.3 5.4 5.6 5.7 5.9 5.6 5.5 5.3 5.2 5.2 4.9 4.9 4.7 5.1 5.7 6.2 6.1 5.8 5.5 5.3 5.2 5.0
Wind_Speed
12 18 23 22 19 20 18 16 13 14 17 17 15 13 13 12 11 11 11 11 11 11 11 11 11 11 11 10 10 10 10 10 10 10 10 9 9 11 12 13 12 10 11
16 22 24 23 23 21 18 18 18 17 16 15 14 13 13 12 11 11 11 12 11 11 11 12 11 11 11 11 11 11 11 11 11 12 13 16 15 14 13 13 12 11 11
17 21 21 25 23 22 21 20 18 17 16 14 14 13 12 12 12 12 12 12 12 12 12 12 11 11 11 11 11 11 12 13 12 12 13 11 14 12 12 11 9 8 8
17 20 20 25 23 23 21 20 18 17 15 14 13 13 12 12 12 12 12 12 12 12 12 12 12 11 11 11 12 12 13 15 14 12 14 11 7 10 12 17 15 10 9
15 18 22 25 24 21 20 20 19 17 16 14 13 13 12 12 12 13 13 13 13 13 13 12 12 11 11 12 12 13 14 15 13 12 13 10 8 14 15 14 17 17 16
14 19 24 24 23 21 20 20 19 18 16 15 14 13 13 13 13 13 13 13 13 13 13 13 12 12 11 12 13 14 18 14 13 12 14 14 9 15 15 14 15 15 16
14 19 21 24 23 21 20 20 20 18 17 16 15 14 14 13 13 13 13 13 12 12 13 13 14 14 13 13 13 14 15 13 12 12 13 14 15 16 16 15 14 15 14
15 17 19 23 23 20 20 20 19 19 17 17 16 16 15 14 13 13 12 12 13 14 15 14 13 13 13 13 13 15 12 10 11 11 14 13 16 16 15 15 16 15 13
15 13 16 17 20 20 18 18 18 19 18 17 17 16 16 14 13 12 12 13 13 13 13 14 14 12 11 12 13 16 13 14 13 11 11 10 16 16 16 15 14 13 16
11 11 12 15 13 16 17 17 18 18 18 17 17 16 14 13 12 12 10 9 9 10 11 12 13 13 12 11 12 13 14 12 11 11 11 13 16 15 15 14 13 14 18
12 10 12 11 11 16 18 16 17 17 17 16 16 17 14 12 11 9 8 8 8 9 11 11 11 11 12 12 12 12 13 10 11 11 13 14 16 15 14 13 14 14 16
14 11 11 9 10 12 12 15 16 14 16 17 15 12 11 9 7 8 8 9 11 12 12 13 13 12 12 11 11 13 12 10 11 10 14 16 14 13 14 14 15 15 15
15 10 11 9 12 11 10 12 13 13 13 12 12 10 11 10 8 8 10 12 13 14 14 14 15 13 11 11 10 11 9 10 9 10 11 13 12 12 13 14 15 14 14
15 14 12 9 7 9 12 10 11 9 9 8 10 11 12 10 10 8 9 10 11 11 12 12 11 11 13 10 9 10 8 7 7 8 8 10 11 11 12 13 13 13 13
16 14 13 11 8 9 8 9 9 7 10 12 12 13 15 10 6 9 8 10 9 10 9 9 10 10 10 10 10 9 7 6 6 5 6 8 8 9 10 12 12 12 12
15 15 13 13 9 11 7 7 7 12 14 14 14 13 14 14 10 8 7 7 8 9 9 8 7 6 5 8 6 7 6 6 6 4 4 4 5 7 8 10 12 12 11
14 16 15 12 10 9 8 7 10 13 14 11 13 14 15 14 13 10 7 5 6 8 10 10 8 8 5 6 4 5 4 5 5 3 2 2 2 4 4 7 11 12 12
17 17 15 12 10 9 8 7 9 12 12 12 14 14 14 14 14 11 6 5 7 10 9 5 4 4 4 4 3 3 2 3 5 5 5 2 2 3 4 5 8 10 11
19 18 14 13 11 9 8 8 9 11 9 11 14 13 13 13 13 12 7 7 9 8 6 3 4 3 3 4 3 3 3 2 3 3 5 5 2 1 3 7 10 9 9
16 17 15 11 11 10 7 6 4 4 5 11 10 11 12 12 12 12 9 9 9 4 4 3 5 4 2 3 3 4 3 2 5 3 4 6 7 6 7 10 13 12 11
13 14 14 12 12 10 7 6 5 5 3 3 6 12 12 11 12 12 8 8 8 5 4 4 2 5 5 5 3 3 3 4 4 4 4 6 9 12 11 15 17 13 13
15 16 15 12 10 7 6 3 4 5 3 3 7 9 12 13 13 10 8 5 6 4 5 5 5 2 3 5 3 1 3 4 4 4 2 4 6 11 11 14 16 18 18
16 16 14 15 14 10 9 7 5 5 3 3 3 4 5 12 11 12 11 9 6 4 4 4 4 5 3 4 6 2 3 1 3 2 2 3 6 5 9 12 15 17 19
11 15 16 16 14 11 10 10 14 8 7 4 4 5 5 12 10 11 10 10 9 5 5 4 3 3 2 3 2 3 3 1 1 4 3 3 5 5 5 8 12 15 18
11 5 3 14 15 12 10 11 9 8 5 6 6 8 7 7 13 10 9 10 7 5 4 5 5 5 3 3 2 2 2 3 3 1 4 3 3 3 4 5 9 11 16
15 14 3 5 1 8 9 8 10 11 10 7 6 7 5 5 4 8 11 9 9 6 4 4 4 6 4 4 2 2 2 1 1 1 2 4 6 3 3 4 6 10 18
Wind_Direction
158 156 157 155 153 134 130 130 131 128 116 107 100 102 96 92 88 86 83 81 77 73 70 66 61 58 58 57 53 45 37 32 28 18 7 11 19 53 43 34 24 6 1
143 154 159 156 139 135 132 126 114 104 101 108 107 103 98 96 93 89 84 79 77 74 71 66 63 61 59 57 53 47 44 46 37 34 54 65 53 43 32 24 16 5 5
142 154 157 143 136 135 129 124 120 117 118 115 111 107 102 98 94 89 84 79 76 73 69 65 63 62 60 57 54 52 53 41 38 63 58 61 47 39 35 23 7 6 6
142 151 148 135 138 136 133 128 125 123 120 116 112 108 102 97 93 87 82 78 73 69 67 63 59 57 57 56 56 60 55 49 59 65 62 60 51 62 65 43 43 43 37
142 143 140 139 142 142 136 132 129 126 123 118 113 108 102 95 90 85 81 76 72 67 64 62 59 58 57 55 58 62 53 54 69 62 58 53 30 64 53 47 34 46 47
137 140 141 144 141 138 139 135 132 129 125 121 115 107 100 93 87 84 80 75 70 66 63 60 61 59 57 57 60 59 54 61 76 63 47 37 46 49 49 46 38 38 39
136 142 146 142 135 141 140 138 134 132 129 124 118 110 100 93 89 84 79 74 68 63 61 63 62 58 56 61 61 54 56 62 72 62 48 44 62 58 51 49 49 44 37
139 142 143 139 135 143 142 139 138 134 131 126 120 114 105 97 90 85 78 72 68 68 66 61 53 50 52 55 48 41 52 80 75 63 50 49 62 52 51 42 37 40 40
139 138 132 133 140 139 140 139 139 135 132 129 125 119 111 103 95 92 84 76 69 63 57 53 49 44 45 39 37 37 76 90 81 66 50 58 65 55 48 41 43 37 53
136 129 131 122 131 129 132 135 133 132 133 134 128 125 120 116 106 96 90 71 55 46 41 44 47 54 51 42 36 54 93 83 82 66 48 76 69 55 46 46 46 45 55
142 131 125 126 127 129 129 133 132 137 139 135 132 129 121 110 104 91 72 50 32 34 42 50 60 52 56 46 50 76 100 85 79 65 50 70 61 50 46 48 55 47 45
145 139 143 139 139 140 137 143 144 146 142 141 144 143 132 122 106 84 69 53 52 48 49 50 55 49 57 51 51 66 101 87 79 66 55 53 56 55 51 48 47 47 36
150 148 151 150 151 145 138 149 147 147 142 147 154 152 129 115 100 83 79 66 59 48 47 45 47 45 50 50 54 71 102 87 84 77 68 62 56 55 53 47 45 42 39
158 154 156 155 157 150 145 154 155 156 160 144 155 147 122 109 101 94 81 73 65 53 52 47 48 51 49 54 51 73 87 104 102 90 82 78 66 57 51 42 35 31 26
160 162 166 155 161 164 154 153 158 156 141 139 139 134 123 114 107 104 90 77 67 63 55 48 46 49 45 43 49 64 81 123 104 105 87 76 69 56 47 37 34 29 24
157 161 167 165 162 164 157 152 161 152 138 123 126 128 121 115 115 107 94 80 67 66 60 62 54 48 45 35 30 33 71 103 146 125 106 93 78 53 37 24 21 21 17
160 159 166 168 159 163 162 154 151 150 142 134 132 129 121 119 119 120 109 92 75 68 68 55 46 46 41 18 38 23 35 94 115 115 136 118 69 38 34 16 9 9 11
157 166 164 163 161 159 152 154 148 148 141 137 135 131 125 122 124 119 111 96 97 76 65 57 39 34 22 17 353 360 10 29 95 108 105 82 133 46 17 353 344 355 358
164 163 162 159 155 154 144 140 137 143 136 139 135 132 128 120 124 117 109 102 95 84 74 61 44 57 23 358 352 10 4 41 26 55 36 42 110 37 345 338 342 335 343
168 168 160 161 151 149 136 118 105 104 117 136 136 135 129 121 120 112 101 95 95 73 51 55 71 36 32 341 6 25 18 35 39 8 14 21 12 344 344 353 346 341 339
175 169 160 158 155 146 145 137 124 132 128 103 125 134 124 118 119 116 104 91 85 80 70 53 68 46 14 358 32 5 17 27 14 31 49 36 25 18 21 12 353 348 344
184 175 161 155 150 148 147 123 124 134 121 122 128 127 126 120 118 111 106 94 95 95 66 47 43 49 17 20 77 78 20 337 0 12 44 32 36 20 15 1 5 349 346
186 172 163 154 157 148 139 123 104 99 93 103 104 99 92 106 109 114 111 106 95 83 89 82 67 55 49 9 37 97 34 321 327 330 330 23 19 6 0 358 350 350 346
199 179 162 153 153 146 148 144 154 150 152 168 146 131 106 98 89 99 95 104 93 102 86 73 72 84 88 50 353 27 45 121 43 331 327 355 2 357 342 343 339 345 354
124 64 179 156 152 150 153 158 151 139 111 120 117 117 116 120 112 100 105 92 94 83 81 94 78 68 67 79 53 11 14 26 57 31 293 317 333 327 319 327 326 336 346
146 127 45 64 297 140 145 139 143 142 136 139 154 136 151 115 101 106 105 101 106 100 87 79 80 78 80 88 80 70 77 7 345 283 288 321 309 304 294 310 323 332 334